EPPOEPKT

Guest
Details From EPPO - LAWICA
To EPKT - PYRZOWICE
Flight Number -
Tags generated
Created
Modified
Stats Distance 144 nm / 267 km
Max Altitude 17,200 ft / 5,243 m
Waypoints 3
Social Downloads 0
Likes 0
Share VATSIM

Download

Looking for another format? Having issues loading an existing format? Contact us
Advertisement - Login to hide

Notes

Basic altitude profile: - Ascent Rate: 2500ft/min - Ascent Speed: 250kts - Cruise Altitude: 35000ft - Cruise Speed: 420kts - Descent Rate: 1500ft/min - Descent Speed: 250kts

Route

EPPO BADNO EPKT

ID Type Via Altitude Latitude Longitude Leg Dist Tot Dist Heading (true) Name
O EPPO APT - 0 ft / 0 m 52.42157˚ 16.82355˚ - 0 nm - LAWICA
BADNO FIX - 17,200 ft / 5,243 m 51.75000˚ 17.67833˚ 51 nm 51 nm 142° / 142° -
O EPKT APT - 0 ft / 0 m 50.47426˚ 19.07436˚ 92 nm 144 nm 145° / 146° PYRZOWICE

Altitude Profile

Advertisement - Login to hide

EPPO

Details ICAO EPPO (POZ)
Name LAWICA
Region Poland
Timezone Europe/Warsaw (UTC+2.0)
Stats Elevation 308 ft / 94 m (AMSL)
Location 52.421566° 16.823549°
Runways 1
Magnetic Variation 4.793° E

METAR

EPPO 221200Z 12004KT 090V230 CAVOK 22/05 Q1016

Decode

TAF

TAF EPPO 221130Z 2212/2312 09004KT CAVOK PROB40 TEMPO 2212/2219 4500 SHRA BKN040CB PROB30 TEMPO 2212/2218 VRB15G30KT 2000 TSRAGR BKN025CB

Decode

Departure Runways

ID Width Length Bearing (true) Bearing (mag) Surface Threshold Offset Overrun Length
11 164 ft / 50 m 8,153 ft / 2,485 m 107.57° 102.78° Asphalt 0 ft / 0 m 0 ft / 0 m
29 164 ft / 50 m 8,153 ft / 2,485 m 287.59° 282.80° Asphalt 0 ft / 0 m 0 ft / 0 m

EPKT

Details ICAO EPKT (KTW)
Name PYRZOWICE
Region Poland
Timezone Europe/Warsaw (UTC+2.0)
Stats Elevation 995 ft / 303 m (AMSL)
Location 50.474263° 19.074356°
Runways 1
Magnetic Variation 5.139° E

METAR

EPKT 221200Z 28005KT 220V010 CAVOK 23/08 Q1016

Decode

TAF

TAF EPKT 221130Z 2212/2312 22010KT CAVOK BECMG 2212/2215 VRB02KT TEMPO 2212/2218 SCT045TCU PROB30 TEMPO 2212/2217 VRB15G25KT TSRA BKN040CB

Decode

Destination Runways

ID Width Length Bearing (true) Bearing (mag) Surface Threshold Offset Overrun Length
09 195 ft / 59 m 9,156 ft / 2,791 m 90.18° 85.04° Concrete 0 ft / 0 m 0 ft / 0 m
27 195 ft / 59 m 9,156 ft / 2,791 m 270.22° 265.08° Concrete 0 ft / 0 m 0 ft / 0 m

Approach Navaids

Runway Type Ident Frequency Range Bearing (true) Bearing (mag) Slope Elevation
27 Localiser KAT 109.90 MHz 18 nm / 33 km 270.18° 265.04° - 995 ft / 303 m (AMSL)
27 Glidescope KAT 109.90 MHz 10 nm / 19 km 270.20° 265.06° 3.20° 995 ft / 303 m (AMSL)

Popular Alternatives